timestamp,wind_dir_avg,wind_spd_avg,wind_spd_max_dir,wind_spd_gust,battery_voltage,lat,long
2022-12-09 00:04:01+00:00,97.0,4.09,101.0,6.17,12.41,47.59359,-54.27349
2022-12-09 00:14:01+00:00,79.0,2.67,92.0,5.13,12.33,47.59359,-54.27349
2022-12-09 00:24:01+00:00,90.0,3.78,87.0,5.29,12.33,47.59359,-54.27349
2022-12-09 00:34:01+00:00,100.0,3.3,105.0,5.52,12.33,47.59359,-54.27349
2022-12-09 00:44:01+00:00,95.0,4.55,91.0,6.83,12.33,47.59359,-54.27349
2022-12-09 00:54:01+00:00,89.0,3.72,104.0,6.14,12.33,47.59359,-54.27349
2022-12-09 01:04:01+00:00,82.0,2.94,90.0,4.5,12.33,47.59359,-54.27349
2022-12-09 01:14:00+00:00,87.0,4.01,92.0,6.05,12.33,47.59359,-54.27349
2022-12-09 01:24:00+00:00,93.0,4.16,95.0,6.64,12.33,47.59359,-54.27349
2022-12-09 01:34:00+00:00,100.0,5.97,107.0,8.32,12.33,47.59359,-54.27349
2022-12-09 01:44:00+00:00,93.0,3.28,92.0,5.59,12.33,47.59359,-54.27349
2022-12-09 01:54:00+00:00,110.0,5.31,133.0,9.0,12.33,47.59359,-54.27349
2022-12-09 02:04:00+00:00,97.0,4.29,89.0,7.12,12.33,47.59359,-54.27349
2022-12-09 02:14:01+00:00,99.0,3.01,107.0,5.01,12.25,47.59359,-54.27349
2022-12-09 02:24:01+00:00,105.0,4.35,112.0,5.98,12.25,47.59359,-54.27349
2022-12-09 02:34:01+00:00,74.0,3.35,75.0,5.31,12.25,47.59359,-54.27349
2022-12-09 02:44:01+00:00,103.0,2.56,102.0,4.22,12.25,47.59359,-54.27349
2022-12-09 02:54:01+00:00,83.0,2.19,75.0,3.93,12.25,47.59359,-54.27349
2022-12-09 03:04:01+00:00,77.0,3.48,61.0,4.97,12.25,47.59359,-54.27349
2022-12-09 03:14:00+00:00,93.0,3.25,76.0,5.06,12.25,47.59359,-54.27349
2022-12-09 03:24:00+00:00,77.0,3.32,57.0,4.58,12.25,47.59359,-54.27349
2022-12-09 03:34:00+00:00,71.0,5.26,68.0,6.28,12.25,47.59359,-54.27349
2022-12-09 03:44:00+00:00,76.0,3.34,69.0,4.62,12.25,47.59359,-54.27349
2022-12-09 03:54:00+00:00,71.0,4.48,74.0,5.49,12.25,47.59359,-54.27349
2022-12-09 04:04:00+00:00,79.0,4.45,63.0,5.86,12.25,47.59359,-54.27349
2022-12-09 04:14:00+00:00,85.0,3.66,85.0,6.17,12.25,47.59359,-54.27349
2022-12-09 04:24:00+00:00,75.0,4.72,68.0,6.59,12.25,47.59359,-54.27349
2022-12-09 04:34:00+00:00,78.0,3.85,67.0,6.0,12.25,47.59359,-54.27349
2022-12-09 04:44:00+00:00,70.0,5.01,61.0,6.08,12.25,47.59359,-54.27349
2022-12-09 04:54:00+00:00,70.0,5.26,73.0,5.97,12.25,47.59359,-54.27349
2022-12-09 05:04:00+00:00,71.0,6.22,72.0,6.78,12.25,47.59359,-54.27349
2022-12-09 05:14:00+00:00,67.0,5.88,68.0,6.4,12.17,47.59359,-54.27349
2022-12-09 05:24:00+00:00,72.0,5.72,67.0,6.68,12.17,47.59359,-54.27349
2022-12-09 05:34:00+00:00,71.0,5.82,73.0,6.69,12.17,47.59359,-54.27349
2022-12-09 05:44:00+00:00,71.0,5.48,67.0,6.45,12.17,47.59359,-54.27349
2022-12-09 05:54:00+00:00,67.0,4.89,71.0,5.75,12.17,47.59359,-54.27349
2022-12-09 06:04:00+00:00,65.0,4.97,69.0,5.47,12.17,47.59359,-54.27349
2022-12-09 06:14:01+00:00,72.0,4.63,73.0,5.45,12.17,47.59359,-54.27349
2022-12-09 06:24:01+00:00,74.0,4.5,73.0,5.57,12.17,47.59359,-54.27349
2022-12-09 06:34:01+00:00,74.0,3.99,67.0,4.92,12.17,47.59359,-54.27349
2022-12-09 06:44:01+00:00,72.0,5.19,65.0,6.23,12.17,47.59359,-54.27349
2022-12-09 06:54:01+00:00,69.0,4.94,69.0,6.07,12.17,47.59359,-54.27349
2022-12-09 07:04:01+00:00,71.0,4.91,71.0,5.81,12.17,47.59359,-54.27349
2022-12-09 07:14:01+00:00,71.0,4.43,65.0,5.71,12.17,47.59359,-54.27349
2022-12-09 07:24:01+00:00,71.0,5.16,69.0,5.58,12.17,47.59359,-54.27349
2022-12-09 07:34:01+00:00,65.0,5.06,60.0,6.18,12.17,47.59359,-54.27349
2022-12-09 07:44:01+00:00,64.0,4.88,62.0,5.96,12.17,47.59359,-54.27349
2022-12-09 07:54:01+00:00,66.0,4.86,70.0,5.72,12.17,47.59359,-54.27349
2022-12-09 08:04:01+00:00,68.0,5.03,73.0,5.83,12.17,47.59359,-54.27349
2022-12-09 08:14:01+00:00,67.0,4.21,71.0,5.32,12.17,47.59359,-54.27349
2022-12-09 08:24:01+00:00,57.0,4.39,58.0,4.84,12.17,47.59359,-54.27349
2022-12-09 08:34:01+00:00,53.0,4.68,50.0,5.37,12.17,47.59359,-54.27349
2022-12-09 08:44:01+00:00,67.0,6.33,60.0,7.32,12.17,47.59359,-54.27349
2022-12-09 08:54:01+00:00,69.0,5.82,72.0,6.31,12.17,47.59359,-54.27349
2022-12-09 09:04:01+00:00,63.0,4.31,62.0,5.49,12.17,47.59359,-54.27349
2022-12-09 09:14:00+00:00,66.0,4.43,59.0,5.02,12.17,47.59359,-54.27349
2022-12-09 09:24:00+00:00,59.0,5.39,59.0,6.01,12.17,47.59359,-54.27349
2022-12-09 09:34:00+00:00,63.0,5.09,66.0,6.06,12.17,47.59359,-54.27349
2022-12-09 09:44:00+00:00,66.0,4.44,68.0,5.5,12.17,47.59359,-54.27349
2022-12-09 09:54:00+00:00,62.0,4.47,64.0,5.57,12.17,47.59359,-54.27349
2022-12-09 10:04:00+00:00,49.0,5.51,51.0,6.23,12.17,47.59359,-54.27349
2022-12-09 10:14:00+00:00,45.0,5.43,48.0,5.98,12.17,47.59359,-54.27349
2022-12-09 10:24:00+00:00,46.0,6.37,47.0,6.93,12.17,47.59359,-54.27349
2022-12-09 10:34:00+00:00,45.0,6.74,41.0,7.84,12.17,47.59359,-54.27349
2022-12-09 10:44:00+00:00,47.0,6.24,53.0,7.04,12.17,47.59359,-54.27349
2022-12-09 10:54:00+00:00,50.0,7.12,50.0,7.67,12.17,47.59359,-54.27349
2022-12-09 11:04:00+00:00,41.0,6.06,38.0,6.67,12.17,47.59359,-54.27349
2022-12-09 11:14:00+00:00,46.0,6.47,43.0,7.55,12.17,47.59359,-54.27349
2022-12-09 11:24:00+00:00,50.0,7.52,48.0,8.07,12.17,47.59359,-54.27349
2022-12-09 11:34:00+00:00,53.0,7.19,54.0,7.71,12.17,47.59359,-54.27349
2022-12-09 11:44:00+00:00,56.0,7.28,52.0,8.25,12.17,47.59359,-54.27349
2022-12-09 11:54:00+00:00,60.0,6.89,55.0,8.06,12.17,47.59359,-54.27349
2022-12-09 12:04:00+00:00,64.0,6.87,55.0,8.12,12.17,47.59359,-54.27349
2022-12-09 12:14:01+00:00,59.0,7.36,55.0,8.25,12.89,47.59359,-54.27349
2022-12-09 12:24:01+00:00,70.0,7.29,73.0,7.72,12.89,47.59359,-54.27349
2022-12-09 12:34:01+00:00,71.0,6.95,71.0,8.24,12.89,47.59359,-54.27349
2022-12-09 12:44:01+00:00,66.0,8.85,66.0,10.47,12.89,47.59359,-54.27349
2022-12-09 12:54:01+00:00,67.0,8.26,67.0,9.97,12.89,47.59359,-54.27349
2022-12-09 13:04:01+00:00,71.0,8.55,71.0,9.94,12.89,47.59359,-54.27349
2022-12-09 13:14:01+00:00,70.0,8.26,61.0,10.81,13.53,47.59359,-54.27349
2022-12-09 13:24:01+00:00,71.0,8.34,65.0,9.48,13.53,47.59359,-54.27349
2022-12-09 13:34:01+00:00,74.0,7.44,73.0,9.13,13.53,47.59359,-54.27349
2022-12-09 13:44:01+00:00,74.0,7.9,66.0,11.38,13.53,47.59359,-54.27349
2022-12-09 13:54:01+00:00,74.0,6.56,68.0,8.35,13.53,47.59359,-54.27349
2022-12-09 14:04:01+00:00,74.0,7.77,70.0,9.3,13.53,47.59359,-54.27349
2022-12-09 14:14:00+00:00,69.0,8.12,69.0,8.69,13.68,47.59359,-54.27349
2022-12-09 14:24:00+00:00,77.0,6.45,95.0,9.81,13.68,47.59359,-54.27349
2022-12-09 14:34:00+00:00,80.0,4.96,83.0,7.79,13.68,47.59359,-54.27349
2022-12-09 14:44:00+00:00,72.0,5.95,78.0,7.35,13.68,47.59359,-54.27349
2022-12-09 14:54:00+00:00,73.0,5.54,69.0,6.42,13.68,47.59359,-54.27349
2022-12-09 15:04:00+00:00,62.0,6.4,58.0,7.3,13.68,47.59359,-54.27349
2022-12-09 15:14:00+00:00,68.0,7.07,69.0,7.77,13.84,47.59359,-54.27349
2022-12-09 15:24:00+00:00,68.0,5.71,60.0,7.64,13.84,47.59359,-54.27349
2022-12-09 15:34:00+00:00,64.0,6.9,58.0,7.73,13.84,47.59359,-54.27349
2022-12-09 15:44:00+00:00,67.0,7.43,69.0,8.12,13.84,47.59359,-54.27349
2022-12-09 15:54:00+00:00,62.0,7.95,60.0,8.71,13.84,47.59359,-54.27349
2022-12-09 16:04:00+00:00,67.0,6.96,66.0,7.71,13.84,47.59359,-54.27349
2022-12-09 16:14:00+00:00,64.0,7.39,65.0,8.33,13.6,47.59359,-54.27349
2022-12-09 16:24:00+00:00,61.0,7.31,59.0,8.19,13.6,47.59359,-54.27349
2022-12-09 16:34:00+00:00,57.0,6.85,54.0,7.66,13.6,47.59359,-54.27349
2022-12-09 16:44:00+00:00,58.0,6.7,58.0,7.86,13.6,47.59359,-54.27349
2022-12-09 16:54:00+00:00,65.0,7.7,69.0,8.58,13.6,47.59359,-54.27349
2022-12-09 17:04:00+00:00,68.0,6.94,68.0,7.76,13.6,47.59359,-54.27349
2022-12-09 17:14:01+00:00,70.0,6.7,69.0,7.64,13.84,47.59359,-54.27349
2022-12-09 17:24:01+00:00,64.0,7.78,54.0,8.79,13.84,47.59359,-54.27349
2022-12-09 17:34:01+00:00,67.0,6.57,70.0,7.45,13.84,47.59359,-54.27349
2022-12-09 17:44:01+00:00,59.0,7.05,57.0,7.85,13.84,47.59359,-54.27349
2022-12-09 17:54:01+00:00,60.0,7.95,56.0,9.23,13.84,47.59359,-54.27349
2022-12-09 18:04:01+00:00,51.0,7.95,46.0,9.33,13.84,47.59359,-54.27349
2022-12-09 18:14:00+00:00,48.0,8.06,42.0,9.67,13.92,47.59359,-54.27349
2022-12-09 18:24:00+00:00,47.0,7.65,48.0,9.29,13.92,47.59359,-54.27349
2022-12-09 18:34:00+00:00,57.0,8.19,43.0,8.88,13.92,47.59359,-54.27349
2022-12-09 18:44:00+00:00,51.0,7.82,54.0,9.21,13.92,47.59359,-54.27349
2022-12-09 18:54:00+00:00,53.0,7.99,55.0,9.41,13.92,47.59359,-54.27349
2022-12-09 19:04:00+00:00,53.0,8.22,55.0,9.67,13.92,47.59359,-54.27349
2022-12-09 19:14:01+00:00,58.0,7.95,55.0,9.39,12.97,47.59359,-54.27349
2022-12-09 19:24:01+00:00,57.0,8.37,58.0,9.84,12.97,47.59359,-54.27349
2022-12-09 19:34:01+00:00,54.0,8.56,51.0,9.85,12.97,47.59359,-54.27349
2022-12-09 19:44:01+00:00,48.0,7.98,45.0,9.61,12.97,47.59359,-54.27349
2022-12-09 19:54:01+00:00,46.0,9.6,44.0,10.49,12.97,47.59359,-54.27349
2022-12-09 20:04:01+00:00,45.0,9.67,46.0,10.81,12.97,47.59359,-54.27349
2022-12-09 20:14:01+00:00,54.0,9.18,52.0,9.95,12.57,47.59359,-54.27349
2022-12-09 20:24:01+00:00,57.0,9.23,45.0,10.38,12.57,47.59359,-54.27349
2022-12-09 20:34:01+00:00,65.0,10.14,70.0,11.14,12.57,47.59359,-54.27349
2022-12-09 20:44:01+00:00,52.0,7.6,50.0,8.76,12.57,47.59359,-54.27349
2022-12-09 20:54:01+00:00,49.0,8.34,49.0,9.2,12.57,47.59359,-54.27349
2022-12-09 21:04:01+00:00,51.0,7.22,49.0,8.64,12.57,47.59359,-54.27349
2022-12-09 21:14:00+00:00,52.0,8.46,54.0,9.36,12.49,47.59359,-54.27349
2022-12-09 21:24:00+00:00,52.0,9.19,50.0,10.47,12.49,47.59359,-54.27349
2022-12-09 21:34:00+00:00,53.0,8.69,52.0,9.55,12.49,47.59359,-54.27349
2022-12-09 21:44:00+00:00,50.0,8.86,39.0,11.24,12.49,47.59359,-54.27349
2022-12-09 21:54:00+00:00,51.0,8.55,49.0,9.49,12.49,47.59359,-54.27349
2022-12-09 22:04:00+00:00,53.0,8.72,52.0,9.87,12.49,47.59359,-54.27349
2022-12-09 22:14:01+00:00,50.0,8.83,46.0,10.0,12.41,47.59359,-54.27349
2022-12-09 22:24:01+00:00,53.0,8.72,51.0,10.01,12.41,47.59359,-54.27349
2022-12-09 22:34:01+00:00,41.0,7.93,38.0,9.01,12.41,47.59359,-54.27349
2022-12-09 22:44:01+00:00,42.0,8.23,45.0,9.5,12.41,47.59359,-54.27349
2022-12-09 22:54:01+00:00,39.0,8.53,42.0,9.9,12.41,47.59359,-54.27349
2022-12-09 23:04:01+00:00,40.0,7.78,44.0,8.87,12.41,47.59359,-54.27349
2022-12-09 23:14:00+00:00,32.0,7.77,36.0,8.58,12.41,47.59359,-54.27349
2022-12-09 23:24:00+00:00,37.0,8.01,39.0,9.08,12.41,47.59359,-54.27349
2022-12-09 23:34:00+00:00,35.0,7.8,32.0,8.64,12.41,47.59359,-54.27349
2022-12-09 23:44:00+00:00,32.0,8.38,32.0,9.14,12.41,47.59359,-54.27349
2022-12-09 23:54:00+00:00,32.0,8.08,33.0,8.93,12.41,47.59359,-54.27349
